Hourly Weather Kizomys

Today, 29 July, Thursday

Time Temperature Precipitation Wind Pressure Humidity
00:00 +25°C° 0.4 mm 4 mps 760 mmHg 77%
01:00 +25°C° 0.4 mm 4 mps 759 mmHg 79%
02:00 +25°C° 0 mm 4 mps 759 mmHg 82%
03:00 +25°C° 0 mm 4 mps 759 mmHg 83%
04:00 +25°C° 0 mm 4 mps 759 mmHg 84%
05:00 +25°C° 0 mm 3 mps 759 mmHg 86%
06:00 +27°C° 0 mm 4 mps 759 mmHg 78%
07:00 +28°C° 0 mm 4 mps 759 mmHg 71%
08:00 +30°C° 0 mm 5 mps 759 mmHg 63%
09:00 +32°C° 0 mm 5 mps 759 mmHg 58%
10:00 +33°C° 0 mm 5 mps 759 mmHg 53%
11:00 +34°C° 0 mm 5 mps 758 mmHg 48%
12:00 +34°C° 0 mm 5 mps 758 mmHg 47%
13:00 +35°C° 0 mm 6 mps 758 mmHg 47%
14:00 +35°C° 0 mm 6 mps 758 mmHg 46%
15:00 +34°C° 0 mm 6 mps 757 mmHg 49%
16:00 +33°C° 0 mm 6 mps 757 mmHg 51%
17:00 +33°C° 0 mm 6 mps 757 mmHg 53%
18:00 +30°C° 0 mm 6 mps 757 mmHg 60%
19:00 +29°C° 0 mm 5 mps 757 mmHg 67%
20:00 +28°C° 0 mm 5 mps 757 mmHg 74%
21:00 +27°C° 0 mm 4 mps 757 mmHg 74%
22:00 +27°C° 0 mm 3 mps 757 mmHg 75%
23:00 +27°C° 0 mm 2 mps 757 mmHg 76%

Tomorrow, 30 July, Friday

Time Temperature Precipitation Wind Pressure Humidity
00:00 +26°C° 0.1 mm 2 mps 757 mmHg 77%
01:00 +25°C° 0.1 mm 1 mps 757 mmHg 77%
02:00 +25°C° 0.1 mm 1 mps 757 mmHg 77%
03:00 +25°C° 0 mm 2 mps 757 mmHg 76%
04:00 +24°C° 0 mm 3 mps 757 mmHg 75%
05:00 +24°C° 0 mm 3 mps 757 mmHg 74%
06:00 +25°C° 0 mm 4 mps 757 mmHg 68%
07:00 +27°C° 0 mm 4 mps 757 mmHg 61%
08:00 +28°C° 0 mm 4 mps 757 mmHg 55%
09:00 +29°C° 0 mm 4 mps 757 mmHg 52%
10:00 +32°C° 0 mm 4 mps 757 mmHg 48%
11:00 +33°C° 0 mm 4 mps 757 mmHg 44%
12:00 +33°C° 0 mm 4 mps 757 mmHg 43%
13:00 +34°C° 0 mm 4 mps 756 mmHg 42%
14:00 +35°C° 0 mm 4 mps 756 mmHg 41%
15:00 +34°C° 0 mm 4 mps 756 mmHg 42%
16:00 +34°C° 0 mm 5 mps 756 mmHg 44%
17:00 +34°C° 0 mm 5 mps 756 mmHg 45%
18:00 +32°C° 0 mm 4 mps 756 mmHg 49%
19:00 +30°C° 0 mm 3 mps 756 mmHg 53%
20:00 +29°C° 0 mm 3 mps 756 mmHg 57%
21:00 +28°C° 0 mm 3 mps 757 mmHg 58%
22:00 +28°C° 0 mm 3 mps 757 mmHg 58%
23:00 +27°C° 0 mm 3 mps 757 mmHg 58%

Day after tomorrow, 31 July, Saturday

Time Temperature Precipitation Wind Pressure Humidity
00:00 +27°C° 0 mm 3 mps 757 mmHg 59%
01:00 +26°C° 0 mm 3 mps 757 mmHg 59%
02:00 +26°C° 0 mm 3 mps 757 mmHg 59%
03:00 +25°C° 0 mm 3 mps 757 mmHg 60%
04:00 +25°C° 0 mm 3 mps 757 mmHg 60%
05:00 +24°C° 0 mm 3 mps 757 mmHg 61%
06:00 +26°C° 0 mm 3 mps 757 mmHg 55%
07:00 +28°C° 0 mm 3 mps 758 mmHg 49%
08:00 +30°C° 0 mm 3 mps 758 mmHg 43%
09:00 +31°C° 0 mm 3 mps 758 mmHg 40%
10:00 +33°C° 0 mm 3 mps 758 mmHg 37%
11:00 +34°C° 0 mm 3 mps 758 mmHg 33%
12:00 +35°C° 0 mm 3 mps 757 mmHg 32%
13:00 +35°C° 0 mm 3 mps 757 mmHg 31%
14:00 +36°C° 0 mm 3 mps 757 mmHg 30%
15:00 +36°C° 0 mm 3 mps 757 mmHg 31%
16:00 +35°C° 0 mm 4 mps 756 mmHg 31%
17:00 +35°C° 0 mm 4 mps 756 mmHg 32%
18:00 +34°C° 0 mm 4 mps 757 mmHg 37%
19:00 +31°C° 0 mm 3 mps 757 mmHg 41%
20:00 +29°C° 0 mm 3 mps 757 mmHg 46%
21:00 +29°C° 0 mm 2 mps 757 mmHg 47%
22:00 +28°C° 0 mm 2 mps 757 mmHg 49%
23:00 +28°C° 0 mm 2 mps 757 mmHg 50%

1 August, Sunday

Time Temperature Precipitation Wind Pressure Humidity
00:00 +27°C° 0 mm 2 mps 757 mmHg 51%
01:00 +27°C° 0 mm 2 mps 757 mmHg 51%
02:00 +27°C° 0 mm 1 mps 757 mmHg 52%
03:00 +26°C° 0 mm 1 mps 757 mmHg 53%
04:00 +26°C° 0 mm 1 mps 758 mmHg 53%
05:00 +26°C° 0 mm 1 mps 758 mmHg 54%
06:00 +28°C° 0 mm 1 mps 758 mmHg 49%
07:00 +30°C° 0 mm 2 mps 758 mmHg 44%
08:00 +31°C° 0 mm 2 mps 758 mmHg 40%
09:00 +32°C° 0 mm 2 mps 758 mmHg 37%
10:00 +34°C° 0 mm 2 mps 758 mmHg 34%
11:00 +36°C° 0 mm 2 mps 758 mmHg 32%
12:00 +36°C° 0 mm 3 mps 758 mmHg 31%
13:00 +36°C° 0 mm 3 mps 757 mmHg 31%
14:00 +36°C° 0 mm 4 mps 757 mmHg 31%
15:00 +36°C° 0 mm 4 mps 757 mmHg 32%
16:00 +35°C° 0 mm 5 mps 757 mmHg 34%
17:00 +35°C° 0 mm 5 mps 757 mmHg 36%
18:00 +33°C° 0 mm 4 mps 757 mmHg 41%
19:00 +30°C° 0 mm 4 mps 757 mmHg 47%
20:00 +28°C° 0 mm 3 mps 757 mmHg 53%
21:00 +28°C° 0 mm 3 mps 757 mmHg 55%
22:00 +28°C° 0 mm 3 mps 757 mmHg 57%
23:00 +27°C° 0 mm 2 mps 757 mmHg 59%

2 August, Monday

Time Temperature Precipitation Wind Pressure Humidity
00:00 +27°C° 0 mm 2 mps 757 mmHg 60%
01:00 +27°C° 0 mm 2 mps 757 mmHg 61%
02:00 +26°C° 0 mm 1 mps 757 mmHg 62%
03:00 +26°C° 0 mm 2 mps 757 mmHg 64%
04:00 +26°C° 0 mm 2 mps 757 mmHg 66%
05:00 +26°C° 0 mm 2 mps 757 mmHg 68%
06:00 +28°C° 0 mm 2 mps 757 mmHg 60%
07:00 +30°C° 0 mm 3 mps 757 mmHg 52%
08:00 +33°C° 0 mm 3 mps 757 mmHg 44%
09:00 +33°C° 0 mm 4 mps 757 mmHg 41%
10:00 +34°C° 0 mm 4 mps 757 mmHg 38%
11:00 +35°C° 0 mm 5 mps 757 mmHg 35%
12:00 +36°C° 0 mm 5 mps 757 mmHg 34%
13:00 +36°C° 0 mm 5 mps 757 mmHg 34%
14:00 +36°C° 0 mm 5 mps 756 mmHg 33%
15:00 +35°C° 0 mm 5 mps 756 mmHg 35%
16:00 +35°C° 0 mm 5 mps 756 mmHg 37%
17:00 +34°C° 0 mm 6 mps 755 mmHg 39%
18:00 +32°C° 0 mm 6 mps 756 mmHg 46%
19:00 +29°C° 0 mm 6 mps 757 mmHg 53%
20:00 +28°C° 0 mm 6 mps 757 mmHg 60%
21:00 +27°C° 0 mm 5 mps 757 mmHg 62%
22:00 +26°C° 0 mm 3 mps 757 mmHg 64%
23:00 +25°C° 0 mm 2 mps 757 mmHg 66%

3 August, Tuesday

Time Temperature Precipitation Wind Pressure Humidity
00:00 +24°C° 0 mm 3 mps 757 mmHg 68%
01:00 +24°C° 0 mm 3 mps 758 mmHg 70%
02:00 +23°C° 0 mm 4 mps 758 mmHg 72%
03:00 +23°C° 0 mm 4 mps 758 mmHg 74%
04:00 +22°C° 0 mm 4 mps 759 mmHg 77%
05:00 +22°C° 0 mm 4 mps 759 mmHg 79%
06:00 +23°C° 0 mm 4 mps 759 mmHg 74%
07:00 +25°C° 0 mm 5 mps 760 mmHg 68%
08:00 +27°C° 0 mm 5 mps 760 mmHg 62%
09:00 +28°C° 0 mm 5 mps 760 mmHg 55%
10:00 +30°C° 0 mm 4 mps 760 mmHg 49%
11:00 +32°C° 0 mm 4 mps 760 mmHg 42%
12:00 +33°C° 0 mm 4 mps 760 mmHg 39%
13:00 +33°C° 0 mm 4 mps 760 mmHg 36%
14:00 +34°C° 0 mm 4 mps 760 mmHg 33%
15:00 +34°C° 0 mm 4 mps 760 mmHg 33%
16:00 +34°C° 0 mm 4 mps 760 mmHg 33%
17:00 +33°C° 0 mm 5 mps 760 mmHg 33%
18:00 +32°C° 0 mm 4 mps 760 mmHg 36%
19:00 +29°C° 0 mm 4 mps 761 mmHg 40%
20:00 +27°C° 0 mm 4 mps 761 mmHg 43%
21:00 +26°C° 0 mm 4 mps 761 mmHg 45%
22:00 +25°C° 0 mm 4 mps 762 mmHg 46%
23:00 +23°C° 0 mm 4 mps 762 mmHg 48%
Show more